Time,TemperatureF,DewpointF,PressureIn,WindDirection,WindDirectionDegrees,WindSpeedMPH,WindSpeedGustMPH,Humidity,HourlyPrecipIn,Conditions,Clouds,dailyrainin,SoftwareType,DateUTC
2013-02-04 00:01:00,38.6,27.8,30.11,WNW,293,0.0,-999.0,65,0.00,,,0.00,Wunderground v.1.12,2013-02-04 05:01:00,
2013-02-04 00:02:00,38.6,27.8,30.11,WNW,293,0.0,-999.0,65,0.00,,,0.00,Wunderground v.1.12,2013-02-04 05:02:00,
2013-02-04 00:05:00,38.5,27.7,30.11,WNW,293,0.0,-999.0,65,0.00,,,0.00,Wunderground v.1.12,2013-02-04 05:05:00,
2013-02-04 00:08:00,38.3,27.6,30.11,WNW,293,0.0,-999.0,65,0.00,,,0.00,Wunderground v.1.12,2013-02-04 05:08:00,
2013-02-04 00:13:00,38.2,27.5,30.11,WNW,293,0.0,-999.0,65,0.00,,,0.00,Wunderground v.1.12,2013-02-04 05:13:00,
2013-02-04 00:19:00,38.0,27.3,30.11,WNW,293,0.0,-999.0,65,0.00,,,0.00,Wunderground v.1.12,2013-02-04 05:19:00,
2013-02-04 00:24:00,37.8,27.5,30.11,WNW,293,0.0,-999.0,66,0.00,,,0.00,Wunderground v.1.12,2013-02-04 05:24:00,
2013-02-04 00:29:00,37.6,27.3,30.10,West,270,0.0,-999.0,66,0.00,,,0.00,Wunderground v.1.12,2013-02-04 05:29:00,
2013-02-04 00:35:00,37.5,27.5,30.10,West,270,0.0,-999.0,67,0.00,,,0.00,Wunderground v.1.12,2013-02-04 05:35:00,
2013-02-04 00:40:00,37.3,27.3,30.10,West,270,0.0,-999.0,67,0.00,,,0.00,Wunderground v.1.12,2013-02-04 05:40:00,
2013-02-04 00:45:00,37.2,27.2,30.10,West,270,0.0,-999.0,67,0.00,,,0.00,Wunderground v.1.12,2013-02-04 05:45:00,
2013-02-04 00:51:00,37.0,27.1,30.10,North,6,0.0,-999.0,67,0.00,,,0.00,Wunderground v.1.12,2013-02-04 05:51:00,
2013-02-04 00:57:00,36.9,27.3,30.10,West,269,0.0,-999.0,68,0.00,,,0.00,Wunderground v.1.12,2013-02-04 05:57:00,
2013-02-04 01:03:00,36.8,27.2,30.10,West,269,0.0,-999.0,68,0.00,,,0.00,Wunderground v.1.12,2013-02-04 06:03:00,
2013-02-04 01:09:00,36.6,27.0,30.10,West,269,0.0,-999.0,68,0.00,,,0.00,Wunderground v.1.12,2013-02-04 06:09:00,
2013-02-04 01:14:00,36.5,26.9,30.10,West,269,0.0,-999.0,68,0.00,,,0.00,Wunderground v.1.12,2013-02-04 06:14:00,
2013-02-04 01:19:00,36.3,26.7,30.10,West,269,0.0,-999.0,68,0.00,,,0.00,Wunderground v.1.12,2013-02-04 06:19:00,
2013-02-04 01:25:00,36.2,26.6,30.10,West,269,0.0,-999.0,68,0.00,,,0.00,Wunderground v.1.12,2013-02-04 06:25:00,
2013-02-04 01:31:00,36.0,26.5,30.10,West,269,0.0,-999.0,68,0.00,,,0.00,Wunderground v.1.12,2013-02-04 06:31:00,
2013-02-04 01:36:00,36.0,26.5,30.10,West,269,0.0,-999.0,68,0.00,,,0.00,Wunderground v.1.12,2013-02-04 06:36:00,
2013-02-04 01:41:00,35.9,26.4,30.09,West,271,0.0,-999.0,68,0.00,,,0.00,Wunderground v.1.12,2013-02-04 06:41:00,
2013-02-04 01:47:00,35.8,26.3,30.09,West,270,0.0,-999.0,68,0.00,,,0.00,Wunderground v.1.12,2013-02-04 06:47:00,
2013-02-04 01:53:00,35.6,26.1,30.09,West,269,0.0,-999.0,68,0.00,,,0.00,Wunderground v.1.12,2013-02-04 06:53:00,
2013-02-04 01:58:00,35.5,26.0,30.09,West,269,0.0,-999.0,68,0.00,,,0.00,Wunderground v.1.12,2013-02-04 06:58:00,
2013-02-04 02:04:00,35.3,25.8,30.09,West,269,0.0,-999.0,68,0.00,,,0.00,Wunderground v.1.12,2013-02-04 07:04:00,
2013-02-04 02:09:00,35.3,26.1,30.09,West,269,0.0,-999.0,69,0.00,,,0.00,Wunderground v.1.12,2013-02-04 07:09:00,
2013-02-04 02:14:00,35.2,26.0,30.10,West,269,0.0,-999.0,69,0.00,,,0.00,Wunderground v.1.12,2013-02-04 07:14:00,
2013-02-04 02:19:00,35.0,25.9,30.10,West,269,0.0,-999.0,69,0.00,,,0.00,Wunderground v.1.12,2013-02-04 07:19:00,
2013-02-04 02:24:00,34.9,25.8,30.10,West,269,0.0,-999.0,69,0.00,,,0.00,Wunderground v.1.12,2013-02-04 07:24:00,
2013-02-04 02:29:00,34.7,25.6,30.10,West,269,0.0,-999.0,69,0.00,,,0.00,Wunderground v.1.12,2013-02-04 07:29:00,
2013-02-04 02:34:00,34.6,25.5,30.10,West,269,0.0,-999.0,69,0.00,,,0.00,Wunderground v.1.12,2013-02-04 07:34:00,
2013-02-04 02:39:00,34.4,25.3,30.10,West,269,0.0,-999.0,69,0.00,,,0.00,Wunderground v.1.12,2013-02-04 07:39:00,
2013-02-04 02:44:00,34.3,25.2,30.09,West,269,0.0,-999.0,69,0.00,,,0.00,Wunderground v.1.12,2013-02-04 07:44:00,
2013-02-04 02:49:00,34.0,24.9,30.09,West,269,0.0,-999.0,69,0.00,,,0.00,Wunderground v.1.12,2013-02-04 07:49:00,
2013-02-04 02:54:00,33.8,25.0,30.09,West,269,0.0,-999.0,70,0.00,,,0.00,Wunderground v.1.12,2013-02-04 07:54:00,
2013-02-04 02:59:00,33.7,25.0,30.09,West,269,0.0,-999.0,70,0.00,,,0.00,Wunderground v.1.12,2013-02-04 07:59:00,
2013-02-04 03:04:00,33.4,25.0,30.09,West,269,0.0,-999.0,71,0.00,,,0.00,Wunderground v.1.12,2013-02-04 08:04:00,
2013-02-04 03:09:00,33.2,24.8,30.09,West,269,0.0,-999.0,71,0.00,,,0.00,Wunderground v.1.12,2013-02-04 08:09:00,
2013-02-04 03:14:00,32.9,24.9,30.09,West,269,0.0,-999.0,72,0.00,,,0.00,Wunderground v.1.12,2013-02-04 08:14:00,
2013-02-04 03:19:00,32.8,25.1,30.09,West,269,0.0,-999.0,73,0.00,,,0.00,Wunderground v.1.12,2013-02-04 08:19:00,
2013-02-04 03:24:00,32.5,25.1,30.09,West,269,0.0,-999.0,74,0.00,,,0.00,Wunderground v.1.12,2013-02-04 08:24:00,
2013-02-04 03:30:00,32.4,25.0,30.09,West,269,0.0,-999.0,74,0.00,,,0.00,Wunderground v.1.12,2013-02-04 08:30:00,
2013-02-04 03:35:00,32.1,25.1,30.09,West,269,0.0,-999.0,75,0.00,,,0.00,Wunderground v.1.12,2013-02-04 08:35:00,
2013-02-04 03:40:00,31.9,24.9,30.09,West,269,0.0,-999.0,75,0.00,,,0.00,Wunderground v.1.12,2013-02-04 08:40:00,
2013-02-04 03:45:00,31.6,24.9,30.10,West,269,0.0,-999.0,76,0.00,,,0.00,Wunderground v.1.12,2013-02-04 08:45:00,
2013-02-04 03:50:00,31.5,24.8,30.10,West,269,0.0,-999.0,76,0.00,,,0.00,Wunderground v.1.12,2013-02-04 08:50:00,
2013-02-04 03:55:00,31.3,24.6,30.10,West,269,0.0,-999.0,76,0.00,,,0.00,Wunderground v.1.12,2013-02-04 08:55:00,
2013-02-04 04:00:00,31.2,24.8,30.09,West,269,0.0,-999.0,77,0.00,,,0.00,Wunderground v.1.12,2013-02-04 09:00:00,
2013-02-04 04:05:00,30.9,24.5,30.09,West,269,0.0,-999.0,77,0.00,,,0.00,Wunderground v.1.12,2013-02-04 09:05:00,
2013-02-04 04:10:00,30.7,24.3,30.09,West,267,0.0,-999.0,77,0.00,,,0.00,Wunderground v.1.12,2013-02-04 09:10:00,
2013-02-04 04:15:00,30.6,24.6,30.08,West,269,0.0,-999.0,78,0.00,,,0.00,Wunderground v.1.12,2013-02-04 09:15:00,
2013-02-04 04:20:00,30.4,24.4,30.08,West,269,0.0,-999.0,78,0.00,,,0.00,Wunderground v.1.12,2013-02-04 09:20:00,
2013-02-04 04:25:00,30.3,24.3,30.08,West,269,0.0,-999.0,78,0.00,,,0.00,Wunderground v.1.12,2013-02-04 09:25:00,
2013-02-04 04:30:00,30.1,24.1,30.08,West,269,0.0,-999.0,78,0.00,,,0.00,Wunderground v.1.12,2013-02-04 09:30:00,
2013-02-04 04:35:00,30.0,24.0,30.08,West,269,0.0,-999.0,78,0.00,,,0.00,Wunderground v.1.12,2013-02-04 09:35:00,
2013-02-04 04:40:00,29.8,23.8,30.08,West,269,0.0,-999.0,78,0.00,,,0.00,Wunderground v.1.12,2013-02-04 09:40:00,
2013-02-04 04:45:00,29.7,23.7,30.08,West,269,0.0,-999.0,78,0.00,,,0.00,Wunderground v.1.12,2013-02-04 09:45:00,
2013-02-04 04:50:00,29.5,23.8,30.08,West,269,0.0,-999.0,79,0.00,,,0.00,Wunderground v.1.12,2013-02-04 09:50:00,
2013-02-04 04:55:00,29.4,23.7,30.08,West,269,0.0,-999.0,79,0.00,,,0.00,Wunderground v.1.12,2013-02-04 09:55:00,
2013-02-04 05:00:00,29.3,23.6,30.08,West,269,0.0,-999.0,79,0.00,,,0.00,Wunderground v.1.12,2013-02-04 10:00:00,
2013-02-04 05:05:00,29.1,23.4,30.08,West,269,0.0,-999.0,79,0.00,,,0.00,Wunderground v.1.12,2013-02-04 10:05:00,
2013-02-04 05:10:00,29.1,23.4,30.08,West,269,0.0,-999.0,79,0.00,,,0.00,Wunderground v.1.12,2013-02-04 10:10:00,
2013-02-04 05:15:00,29.0,23.3,30.08,West,269,0.0,-999.0,79,0.00,,,0.00,Wunderground v.1.12,2013-02-04 10:15:00,
2013-02-04 05:20:00,28.8,23.1,30.08,West,269,0.0,-999.0,79,0.00,,,0.00,Wunderground v.1.12,2013-02-04 10:20:00,
2013-02-04 05:25:00,28.8,23.4,30.08,West,269,0.0,-999.0,80,0.00,,,0.00,Wunderground v.1.12,2013-02-04 10:25:00,
2013-02-04 05:30:00,28.8,23.4,30.09,West,269,0.0,-999.0,80,0.00,,,0.00,Wunderground v.1.12,2013-02-04 10:30:00,
2013-02-04 05:35:00,28.8,23.4,30.09,West,269,0.0,-999.0,80,0.00,,,0.00,Wunderground v.1.12,2013-02-04 10:35:00,
2013-02-04 05:41:00,28.8,23.7,30.09,West,269,0.0,-999.0,81,0.00,,,0.00,Wunderground v.1.12,2013-02-04 10:41:00,
2013-02-04 05:46:00,28.8,23.7,30.11,West,269,0.0,-999.0,81,0.00,,,0.00,Wunderground v.1.12,2013-02-04 10:46:00,
2013-02-04 05:51:00,28.8,23.7,30.11,West,267,0.0,-999.0,81,0.00,,,0.00,Wunderground v.1.12,2013-02-04 10:51:00,
2013-02-04 05:56:00,28.8,23.7,30.11,West,269,0.0,-999.0,81,0.00,,,0.00,Wunderground v.1.12,2013-02-04 10:56:00,
2013-02-04 06:01:00,28.8,24.0,30.11,West,269,0.0,-999.0,82,0.00,,,0.00,Wunderground v.1.12,2013-02-04 11:01:00,
2013-02-04 06:06:00,28.8,24.0,30.11,West,267,0.0,-999.0,82,0.00,,,0.00,Wunderground v.1.12,2013-02-04 11:06:00,
2013-02-04 06:11:00,28.8,24.3,30.11,West,269,0.0,-999.0,83,0.00,,,0.00,Wunderground v.1.12,2013-02-04 11:11:00,
2013-02-04 06:16:00,29.0,24.5,30.10,West,269,0.0,-999.0,83,0.00,,,0.00,Wunderground v.1.12,2013-02-04 11:16:00,
2013-02-04 06:21:00,29.0,24.5,30.10,West,269,0.0,-999.0,83,0.00,,,0.00,Wunderground v.1.12,2013-02-04 11:21:00,
2013-02-04 06:26:00,29.0,24.5,30.10,West,269,0.0,-999.0,83,0.00,,,0.00,Wunderground v.1.12,2013-02-04 11:26:00,
2013-02-04 06:31:00,29.1,24.9,30.10,West,269,0.0,-999.0,84,0.00,,,0.00,Wunderground v.1.12,2013-02-04 11:31:00,
2013-02-04 06:36:00,29.1,24.9,30.10,West,269,0.0,-999.0,84,0.00,,,0.00,Wunderground v.1.12,2013-02-04 11:36:00,
2013-02-04 06:41:00,29.3,25.1,30.10,West,269,0.0,-999.0,84,0.00,,,0.00,Wunderground v.1.12,2013-02-04 11:41:00,
2013-02-04 06:46:00,29.4,25.2,30.09,West,269,0.0,-999.0,84,0.00,,,0.00,Wunderground v.1.12,2013-02-04 11:46:00,
2013-02-04 06:51:00,29.4,25.2,30.09,West,269,0.0,-999.0,84,0.00,,,0.00,Wunderground v.1.12,2013-02-04 11:51:00,
2013-02-04 06:56:00,29.5,25.3,30.09,West,269,0.0,-999.0,84,0.00,,,0.00,Wunderground v.1.12,2013-02-04 11:56:00,
2013-02-04 07:01:00,29.8,25.6,30.11,West,269,0.0,-999.0,84,0.00,,,0.00,Wunderground v.1.12,2013-02-04 12:01:00,
2013-02-04 07:06:00,30.0,25.8,30.11,West,271,0.0,-999.0,84,0.00,,,0.00,Wunderground v.1.12,2013-02-04 12:06:00,
2013-02-04 07:11:00,30.0,25.8,30.11,West,271,0.0,-999.0,84,0.00,,,0.00,Wunderground v.1.12,2013-02-04 12:11:00,
2013-02-04 07:16:00,30.1,25.8,30.11,West,271,0.0,-999.0,84,0.00,,,0.00,Wunderground v.1.12,2013-02-04 12:16:00,
2013-02-04 07:21:00,30.3,26.0,30.11,West,271,0.0,-999.0,84,0.00,,,0.00,Wunderground v.1.12,2013-02-04 12:21:00,
2013-02-04 07:26:00,30.4,26.1,30.11,West,271,0.0,-999.0,84,0.00,,,0.00,Wunderground v.1.12,2013-02-04 12:26:00,
2013-02-04 07:31:00,30.6,26.3,30.11,West,271,0.0,-999.0,84,0.00,,,0.00,Wunderground v.1.12,2013-02-04 12:31:00,
2013-02-04 07:36:00,30.7,26.4,30.11,West,271,0.0,-999.0,84,0.00,,,0.00,Wunderground v.1.12,2013-02-04 12:36:00,
2013-02-04 07:41:00,30.9,26.6,30.11,West,271,0.0,-999.0,84,0.00,,,0.00,Wunderground v.1.12,2013-02-04 12:41:00,
2013-02-04 07:46:00,31.0,26.4,30.11,West,271,0.0,-999.0,83,0.00,,,0.00,Wunderground v.1.12,2013-02-04 12:46:00,
2013-02-04 07:51:00,31.2,26.6,30.11,West,271,0.0,-999.0,83,0.00,,,0.00,Wunderground v.1.12,2013-02-04 12:51:00,
2013-02-04 07:56:00,31.3,26.7,30.13,West,271,0.0,-999.0,83,0.00,,,0.00,Wunderground v.1.12,2013-02-04 12:56:00,
2013-02-04 08:01:00,31.5,26.9,30.13,West,271,0.0,-999.0,83,0.00,,,0.00,Wunderground v.1.12,2013-02-04 13:01:00,
2013-02-04 08:06:00,31.5,26.9,30.13,West,271,0.0,-999.0,83,0.00,,,0.00,Wunderground v.1.12,2013-02-04 13:06:00,
2013-02-04 08:11:00,31.6,26.7,30.13,West,271,0.0,-999.0,82,0.00,,,0.00,Wunderground v.1.12,2013-02-04 13:11:00,
2013-02-04 08:17:00,31.8,26.9,30.13,West,271,0.0,-999.0,82,0.00,,,0.00,Wunderground v.1.12,2013-02-04 13:17:00,
2013-02-04 08:22:00,31.8,26.9,30.13,West,271,0.0,-999.0,82,0.00,,,0.00,Wunderground v.1.12,2013-02-04 13:22:00,
2013-02-04 08:27:00,31.9,26.7,30.14,West,271,0.0,-999.0,81,0.00,,,0.00,Wunderground v.1.12,2013-02-04 13:27:00,
2013-02-04 08:32:00,32.1,26.9,30.14,West,271,0.0,-999.0,81,0.00,,,0.00,Wunderground v.1.12,2013-02-04 13:32:00,
2013-02-04 08:37:00,32.2,27.0,30.14,West,271,0.0,-999.0,81,0.00,,,0.00,Wunderground v.1.12,2013-02-04 13:37:00,
2013-02-04 08:42:00,32.2,27.0,30.12,West,271,0.0,-999.0,81,0.00,,,0.00,Wunderground v.1.12,2013-02-04 13:42:00,
2013-02-04 08:47:00,32.4,27.2,30.12,West,271,0.0,-999.0,81,0.00,,,0.00,Wunderground v.1.12,2013-02-04 13:47:00,
2013-02-04 08:52:00,32.5,27.3,30.12,West,271,0.0,-999.0,81,0.00,,,0.00,Wunderground v.1.12,2013-02-04 13:52:00,
2013-02-04 08:57:00,32.7,27.2,30.13,West,271,0.0,-999.0,80,0.00,,,0.00,Wunderground v.1.12,2013-02-04 13:57:00,
2013-02-04 09:02:00,32.7,27.2,30.13,West,271,0.0,-999.0,80,0.00,,,0.00,Wunderground v.1.12,2013-02-04 14:02:00,
2013-02-04 09:07:00,32.8,27.3,30.13,West,271,0.0,-999.0,80,0.00,,,0.00,Wunderground v.1.12,2013-02-04 14:07:00,
2013-02-04 09:12:00,32.9,27.1,30.15,West,271,0.0,-999.0,79,0.00,,,0.00,Wunderground v.1.12,2013-02-04 14:12:00,
2013-02-04 09:17:00,33.1,27.3,30.15,West,271,0.0,-999.0,79,0.00,,,0.00,Wunderground v.1.12,2013-02-04 14:17:00,
2013-02-04 09:22:00,33.4,27.6,30.15,West,271,0.0,-999.0,79,0.00,,,0.00,Wunderground v.1.12,2013-02-04 14:22:00,
2013-02-04 09:27:00,33.5,27.7,30.15,West,271,0.0,-999.0,79,0.00,,,0.00,Wunderground v.1.12,2013-02-04 14:27:00,
2013-02-04 09:32:00,33.7,27.9,30.15,West,271,0.0,-999.0,79,0.00,,,0.00,Wunderground v.1.12,2013-02-04 14:32:00,
2013-02-04 09:37:00,33.8,27.7,30.15,West,271,0.0,-999.0,78,0.00,,,0.00,Wunderground v.1.12,2013-02-04 14:37:00,
2013-02-04 09:42:00,34.1,28.0,30.14,West,271,0.0,-999.0,78,0.00,,,0.00,Wunderground v.1.12,2013-02-04 14:42:00,
2013-02-04 09:47:00,34.3,27.8,30.14,West,271,0.0,-999.0,77,0.00,,,0.00,Wunderground v.1.12,2013-02-04 14:47:00,
2013-02-04 09:52:00,34.6,28.1,30.14,West,271,0.0,-999.0,77,0.00,,,0.00,Wunderground v.1.12,2013-02-04 14:52:00,
2013-02-04 09:57:00,34.9,28.1,30.14,West,271,0.0,-999.0,76,0.00,,,0.00,Wunderground v.1.12,2013-02-04 14:57:00,
2013-02-04 10:02:00,35.0,28.2,30.14,West,271,0.0,-999.0,76,0.00,,,0.00,Wunderground v.1.12,2013-02-04 15:02:00,
2013-02-04 10:07:00,35.3,28.2,30.14,West,271,0.0,-999.0,75,0.00,,,0.00,Wunderground v.1.12,2013-02-04 15:07:00,
2013-02-04 10:12:00,35.6,28.5,30.13,NW,310,0.0,-999.0,75,0.00,,,0.00,Wunderground v.1.12,2013-02-04 15:12:00,
2013-02-04 10:17:00,35.9,28.4,30.13,NW,311,0.0,-999.0,74,0.00,,,0.00,Wunderground v.1.12,2013-02-04 15:17:00,
2013-02-04 10:22:00,36.2,28.7,30.13,NW,311,0.0,-999.0,74,0.00,,,0.00,Wunderground v.1.12,2013-02-04 15:22:00,
2013-02-04 10:28:00,36.5,28.7,30.13,NW,311,0.0,-999.0,73,0.00,,,0.00,Wunderground v.1.12,2013-02-04 15:28:00,
2013-02-04 10:34:00,36.8,29.0,30.13,NW,311,0.0,-999.0,73,0.00,,,0.00,Wunderground v.1.12,2013-02-04 15:34:00,
2013-02-04 10:39:00,37.0,28.8,30.13,NW,311,0.0,-999.0,72,0.00,,,0.00,Wunderground v.1.12,2013-02-04 15:39:00,
2013-02-04 10:44:00,37.3,28.8,30.13,NW,311,0.0,-999.0,71,0.00,,,0.00,Wunderground v.1.12,2013-02-04 15:44:00,
2013-02-04 10:49:00,37.6,28.7,30.13,NW,311,0.0,-999.0,70,0.00,,,0.00,Wunderground v.1.12,2013-02-04 15:49:00,
2013-02-04 10:54:00,38.0,28.7,30.13,NW,311,0.0,-999.0,69,0.00,,,0.00,Wunderground v.1.12,2013-02-04 15:54:00,
2013-02-04 10:59:00,38.3,28.7,30.12,NW,311,0.0,-999.0,68,0.00,,,0.00,Wunderground v.1.12,2013-02-04 15:59:00,
2013-02-04 11:04:00,38.6,28.2,30.12,NW,312,0.0,-999.0,66,0.00,,,0.00,Wunderground v.1.12,2013-02-04 16:04:00,
2013-02-04 11:09:00,39.1,28.7,30.12,NE,40,0.0,-999.0,66,0.00,,,0.00,Wunderground v.1.12,2013-02-04 16:09:00,
2013-02-04 11:14:00,39.3,28.5,30.12,NNE,33,0.0,-999.0,65,0.00,,,0.00,Wunderground v.1.12,2013-02-04 16:14:00,
2013-02-04 11:19:00,39.8,29.0,30.12,NNE,33,0.0,-999.0,65,0.00,,,0.00,Wunderground v.1.12,2013-02-04 16:19:00,
2013-02-04 11:25:00,40.2,29.4,30.12,NE,34,0.0,-999.0,65,0.00,,,0.00,Wunderground v.1.12,2013-02-04 16:25:00,
2013-02-04 11:30:00,40.6,29.0,30.13,NE,34,0.0,-999.0,63,0.00,,,0.00,Wunderground v.1.12,2013-02-04 16:30:00,
2013-02-04 11:35:00,41.2,29.2,30.13,NE,34,0.0,-999.0,62,0.00,,,0.00,Wunderground v.1.12,2013-02-04 16:35:00,
2013-02-04 11:40:00,41.5,29.0,30.13,NNE,33,0.0,-999.0,61,0.00,,,0.00,Wunderground v.1.12,2013-02-04 16:40:00,
2013-02-04 11:45:00,41.9,29.0,30.14,NNE,33,0.0,-999.0,60,0.00,,,0.00,Wunderground v.1.12,2013-02-04 16:45:00,
2013-02-04 11:50:00,42.3,29.0,30.14,NE,34,0.0,-999.0,59,0.00,,,0.00,Wunderground v.1.12,2013-02-04 16:50:00,
2013-02-04 11:55:00,42.8,29.5,30.14,NNE,33,0.0,-999.0,59,0.00,,,0.00,Wunderground v.1.12,2013-02-04 16:55:00,
2013-02-04 12:00:00,42.9,28.7,30.13,NE,34,0.0,-999.0,57,0.00,,,0.00,Wunderground v.1.12,2013-02-04 17:00:00,
2013-02-04 12:05:00,43.3,28.6,30.13,NNE,33,0.0,-999.0,56,0.00,,,0.00,Wunderground v.1.12,2013-02-04 17:05:00,
2013-02-04 12:10:00,43.6,28.9,30.13,NNE,33,0.0,-999.0,56,0.00,,,0.00,Wunderground v.1.12,2013-02-04 17:10:00,
2013-02-04 12:15:00,43.9,29.2,30.12,NE,34,0.0,-999.0,56,0.00,,,0.00,Wunderground v.1.12,2013-02-04 17:15:00,
2013-02-04 12:20:00,44.3,29.6,30.12,NE,34,0.0,-999.0,56,0.00,,,0.00,Wunderground v.1.12,2013-02-04 17:20:00,
2013-02-04 12:25:00,44.6,29.4,30.12,NE,34,0.0,-999.0,55,0.00,,,0.00,Wunderground v.1.12,2013-02-04 17:25:00,
2013-02-04 12:30:00,45.1,29.4,30.11,NNE,33,0.0,-999.0,54,0.00,,,0.00,Wunderground v.1.12,2013-02-04 17:30:00,
2013-02-04 12:35:00,45.4,29.7,30.11,NE,34,0.0,-999.0,54,0.00,,,0.00,Wunderground v.1.12,2013-02-04 17:35:00,
2013-02-04 12:40:00,45.7,29.5,30.11,NE,34,0.0,-999.0,53,0.00,,,0.00,Wunderground v.1.12,2013-02-04 17:40:00,
2013-02-04 12:45:00,46.0,29.3,30.10,NE,34,0.0,-999.0,52,0.00,,,0.00,Wunderground v.1.12,2013-02-04 17:45:00,
2013-02-04 12:50:00,46.4,29.7,30.10,NE,34,0.0,-999.0,52,0.00,,,0.00,Wunderground v.1.12,2013-02-04 17:50:00,
2013-02-04 12:55:00,46.7,29.5,30.10,NE,34,0.0,-999.0,51,0.00,,,0.00,Wunderground v.1.12,2013-02-04 17:55:00,
2013-02-04 13:00:00,46.8,29.6,30.09,NE,34,0.0,-999.0,51,0.00,,,0.00,Wunderground v.1.12,2013-02-04 18:00:00,
2013-02-04 13:06:00,47.1,29.4,30.09,NE,34,0.0,-999.0,50,0.00,,,0.00,Wunderground v.1.12,2013-02-04 18:06:00,
2013-02-04 13:11:00,47.4,29.2,30.09,SW,221,0.0,-999.0,49,0.00,,,0.00,Wunderground v.1.12,2013-02-04 18:11:00,
2013-02-04 13:16:00,47.7,28.9,30.09,SW,218,0.0,-999.0,48,0.00,,,0.00,Wunderground v.1.12,2013-02-04 18:16:00,
2013-02-04 13:21:00,47.9,27.6,30.09,SW,218,0.0,-999.0,45,0.00,,,0.00,Wunderground v.1.12,2013-02-04 18:21:00,
2013-02-04 13:26:00,48.0,27.6,30.09,SSE,160,0.0,-999.0,45,0.00,,,0.00,Wunderground v.1.12,2013-02-04 18:26:00,
2013-02-04 13:31:00,48.2,27.8,30.07,SSE,160,0.0,-999.0,45,0.00,,,0.00,Wunderground v.1.12,2013-02-04 18:31:00,
2013-02-04 13:36:00,48.5,28.1,30.07,SSE,160,0.0,-999.0,45,0.00,,,0.00,Wunderground v.1.12,2013-02-04 18:36:00,
2013-02-04 13:41:00,48.5,28.1,30.07,SSE,160,0.0,-999.0,45,0.00,,,0.00,Wunderground v.1.12,2013-02-04 18:41:00,
2013-02-04 13:46:00,48.6,27.1,30.06,SSE,160,0.0,-999.0,43,0.00,,,0.00,Wunderground v.1.12,2013-02-04 18:46:00,
2013-02-04 13:51:00,48.8,27.3,30.06,SSE,161,0.0,-999.0,43,0.00,,,0.00,Wunderground v.1.12,2013-02-04 18:51:00,
2013-02-04 13:56:00,48.9,27.4,30.06,SSE,161,0.0,-999.0,43,0.00,,,0.00,Wunderground v.1.12,2013-02-04 18:56:00,
2013-02-04 14:01:00,49.1,26.4,30.07,SSE,160,0.0,-999.0,41,0.00,,,0.00,Wunderground v.1.12,2013-02-04 19:01:00,
2013-02-04 14:06:00,49.1,26.4,30.07,ESE,123,0.0,-999.0,41,0.00,,,0.00,Wunderground v.1.12,2013-02-04 19:06:00,
2013-02-04 14:11:00,49.4,26.7,30.07,East,88,0.0,-999.0,41,0.00,,,0.00,Wunderground v.1.12,2013-02-04 19:11:00,
2013-02-04 14:16:00,49.5,27.3,30.06,East,91,0.0,-999.0,42,0.00,,,0.00,Wunderground v.1.12,2013-02-04 19:16:00,
2013-02-04 14:21:00,49.6,26.8,30.06,East,91,0.0,-999.0,41,0.00,,,0.00,Wunderground v.1.12,2013-02-04 19:21:00,
2013-02-04 14:26:00,49.8,26.4,30.06,SE,142,0.0,-999.0,40,0.00,,,0.00,Wunderground v.1.12,2013-02-04 19:26:00,
2013-02-04 14:31:00,49.9,25.9,30.05,SE,137,0.0,-999.0,39,0.00,,,0.00,Wunderground v.1.12,2013-02-04 19:31:00,
2013-02-04 14:36:00,50.1,26.7,30.05,SE,137,0.0,-999.0,40,0.00,,,0.00,Wunderground v.1.12,2013-02-04 19:36:00,
2013-02-04 14:41:00,50.2,27.4,30.05,SE,136,0.0,-999.0,41,0.00,,,0.00,Wunderground v.1.12,2013-02-04 19:41:00,
2013-02-04 14:46:00,50.4,26.3,30.05,SE,136,0.0,-999.0,39,0.00,,,0.00,Wunderground v.1.12,2013-02-04 19:46:00,
2013-02-04 14:51:00,50.5,26.4,30.05,SE,134,0.0,-999.0,39,0.00,,,0.00,Wunderground v.1.12,2013-02-04 19:51:00,
2013-02-04 14:56:00,50.7,26.6,30.05,SE,134,0.0,-999.0,39,0.00,,,0.00,Wunderground v.1.12,2013-02-04 19:56:00,
2013-02-04 15:01:00,50.8,26.1,30.05,SE,136,0.0,-999.0,38,0.00,,,0.00,Wunderground v.1.12,2013-02-04 20:01:00,
2013-02-04 15:06:00,50.8,25.4,30.05,SE,134,0.0,-999.0,37,0.00,,,0.00,Wunderground v.1.12,2013-02-04 20:06:00,
2013-02-04 15:11:00,51.0,26.3,30.04,SE,133,0.0,-999.0,38,0.00,,,0.00,Wunderground v.1.12,2013-02-04 20:11:00,
2013-02-04 15:16:00,51.0,26.3,30.04,SE,133,0.0,-999.0,38,0.00,,,0.00,Wunderground v.1.12,2013-02-04 20:16:00,
2013-02-04 15:21:00,50.8,25.4,30.04,SE,132,0.0,-999.0,37,0.00,,,0.00,Wunderground v.1.12,2013-02-04 20:21:00,
2013-02-04 15:26:00,50.8,25.4,30.03,SE,132,0.0,-999.0,37,0.00,,,0.00,Wunderground v.1.12,2013-02-04 20:26:00,
2013-02-04 15:31:00,51.0,25.6,30.03,SE,132,0.0,-999.0,37,0.00,,,0.00,Wunderground v.1.12,2013-02-04 20:31:00,
2013-02-04 15:36:00,50.8,26.1,30.03,SE,132,0.0,-999.0,38,0.00,,,0.00,Wunderground v.1.12,2013-02-04 20:36:00,
2013-02-04 15:41:00,51.0,26.3,30.04,SE,132,0.0,-999.0,38,0.00,,,0.00,Wunderground v.1.12,2013-02-04 20:41:00,
2013-02-04 15:46:00,51.0,26.9,30.04,SE,132,0.0,-999.0,39,0.00,,,0.00,Wunderground v.1.12,2013-02-04 20:46:00,
2013-02-04 15:52:00,51.0,26.3,30.04,East,82,0.0,-999.0,38,0.00,,,0.00,Wunderground v.1.12,2013-02-04 20:52:00,
2013-02-04 15:57:00,51.0,26.9,30.03,East,82,0.0,-999.0,39,0.00,,,0.00,Wunderground v.1.12,2013-02-04 20:57:00,
2013-02-04 16:02:00,51.0,26.9,30.03,East,84,0.0,-999.0,39,0.00,,,0.00,Wunderground v.1.12,2013-02-04 21:02:00,
2013-02-04 16:07:00,51.0,26.9,30.03,East,84,0.0,-999.0,39,0.00,,,0.00,Wunderground v.1.12,2013-02-04 21:07:00,
2013-02-04 16:12:00,51.0,26.9,30.03,East,81,0.0,-999.0,39,0.00,,,0.00,Wunderground v.1.12,2013-02-04 21:12:00,
2013-02-04 16:17:00,51.0,27.5,30.03,East,81,0.0,-999.0,40,0.00,,,0.00,Wunderground v.1.12,2013-02-04 21:17:00,
2013-02-04 16:22:00,50.8,26.7,30.03,East,82,0.0,-999.0,39,0.00,,,0.00,Wunderground v.1.12,2013-02-04 21:22:00,
2013-02-04 16:27:00,50.8,26.7,30.03,East,84,0.0,-999.0,39,0.00,,,0.00,Wunderground v.1.12,2013-02-04 21:27:00,
2013-02-04 16:32:00,50.7,26.6,30.03,East,84,0.0,-999.0,39,0.00,,,0.00,Wunderground v.1.12,2013-02-04 21:32:00,
2013-02-04 16:37:00,50.7,26.6,30.03,East,84,0.0,-999.0,39,0.00,,,0.00,Wunderground v.1.12,2013-02-04 21:37:00,
2013-02-04 16:42:00,50.5,26.4,30.02,East,82,0.0,-999.0,39,0.00,,,0.00,Wunderground v.1.12,2013-02-04 21:42:00,
2013-02-04 16:47:00,50.5,27.0,30.02,East,82,0.0,-999.0,40,0.00,,,0.00,Wunderground v.1.12,2013-02-04 21:47:00,
2013-02-04 16:52:00,50.4,27.0,30.02,East,82,0.0,-999.0,40,0.00,,,0.00,Wunderground v.1.12,2013-02-04 21:52:00,
2013-02-04 16:57:00,50.4,27.0,30.03,East,82,0.0,-999.0,40,0.00,,,0.00,Wunderground v.1.12,2013-02-04 21:57:00,
2013-02-04 17:02:00,50.4,28.1,30.03,East,82,0.0,-999.0,42,0.00,,,0.00,Wunderground v.1.12,2013-02-04 22:02:00,
2013-02-04 17:07:00,50.4,28.7,30.03,East,82,0.0,-999.0,43,0.00,,,0.00,Wunderground v.1.12,2013-02-04 22:07:00,
2013-02-04 17:12:00,50.4,28.1,30.03,East,82,0.0,-999.0,42,0.00,,,0.00,Wunderground v.1.12,2013-02-04 22:12:00,
2013-02-04 17:17:00,50.4,27.6,30.03,East,82,0.0,-999.0,41,0.00,,,0.00,Wunderground v.1.12,2013-02-04 22:17:00,
2013-02-04 17:22:00,50.4,28.7,30.03,East,82,0.0,-999.0,43,0.00,,,0.00,Wunderground v.1.12,2013-02-04 22:22:00,
2013-02-04 17:28:00,50.2,29.1,30.03,East,82,0.0,-999.0,44,0.00,,,0.00,Wunderground v.1.12,2013-02-04 22:28:00,
2013-02-04 17:34:00,50.2,30.7,30.03,East,82,0.0,-999.0,47,0.00,,,0.00,Wunderground v.1.12,2013-02-04 22:34:00,
2013-02-04 17:39:00,50.1,31.7,30.03,East,82,0.0,-999.0,49,0.00,,,0.00,Wunderground v.1.12,2013-02-04 22:39:00,
2013-02-04 17:44:00,49.8,32.4,30.03,East,82,0.0,-999.0,51,0.00,,,0.00,Wunderground v.1.12,2013-02-04 22:44:00,
2013-02-04 17:49:00,49.6,32.7,30.03,East,82,0.0,-999.0,52,0.00,,,0.00,Wunderground v.1.12,2013-02-04 22:49:00,
2013-02-04 17:54:00,49.4,32.5,30.03,East,82,0.0,-999.0,52,0.00,,,0.00,Wunderground v.1.12,2013-02-04 22:54:00,
2013-02-04 17:59:00,49.1,32.2,30.03,East,82,0.0,-999.0,52,0.00,,,0.00,Wunderground v.1.12,2013-02-04 22:59:00,
2013-02-04 18:04:00,48.8,32.9,30.03,East,82,0.0,-999.0,54,0.00,,,0.00,Wunderground v.1.12,2013-02-04 23:04:00,
2013-02-04 18:09:00,48.6,32.7,30.03,East,82,0.0,-999.0,54,0.00,,,0.00,Wunderground v.1.12,2013-02-04 23:09:00,
2013-02-04 18:14:00,48.3,32.4,30.03,East,82,0.0,-999.0,54,0.00,,,0.00,Wunderground v.1.12,2013-02-04 23:14:00,
2013-02-04 18:19:00,48.0,32.6,30.03,East,82,0.0,-999.0,55,0.00,,,0.00,Wunderground v.1.12,2013-02-04 23:19:00,
2013-02-04 18:24:00,47.7,32.8,30.03,East,82,0.0,-999.0,56,0.00,,,0.00,Wunderground v.1.12,2013-02-04 23:24:00,
2013-02-04 18:29:00,47.4,32.5,30.03,East,82,0.0,-999.0,56,0.00,,,0.00,Wunderground v.1.12,2013-02-04 23:29:00,
2013-02-04 18:34:00,47.0,33.0,30.03,East,82,0.0,-999.0,58,0.00,,,0.00,Wunderground v.1.12,2013-02-04 23:34:00,
2013-02-04 18:39:00,46.7,32.7,30.03,East,82,0.0,-999.0,58,0.00,,,0.00,Wunderground v.1.12,2013-02-04 23:39:00,
2013-02-04 18:44:00,46.4,32.8,30.04,East,82,0.0,-999.0,59,0.00,,,0.00,Wunderground v.1.12,2013-02-04 23:44:00,
2013-02-04 18:49:00,46.0,32.9,30.04,East,82,0.0,-999.0,60,0.00,,,0.00,Wunderground v.1.12,2013-02-04 23:49:00,
2013-02-04 18:54:00,45.5,32.4,30.04,East,82,0.0,-999.0,60,0.00,,,0.00,Wunderground v.1.12,2013-02-04 23:54:00,
2013-02-04 18:59:00,45.2,32.5,30.04,East,82,0.0,-999.0,61,0.00,,,0.00,Wunderground v.1.12,2013-02-04 23:59:00,
2013-02-04 19:04:00,44.9,32.7,30.04,East,82,0.0,-999.0,62,0.00,,,0.00,Wunderground v.1.12,2013-02-05 00:04:00,
2013-02-04 19:09:00,44.6,32.4,30.04,East,82,0.0,-999.0,62,0.00,,,0.00,Wunderground v.1.12,2013-02-05 00:09:00,
2013-02-04 19:14:00,44.3,32.1,30.05,East,82,0.0,-999.0,62,0.00,,,0.00,Wunderground v.1.12,2013-02-05 00:14:00,
2013-02-04 19:19:00,44.1,32.3,30.05,East,82,0.0,-999.0,63,0.00,,,0.00,Wunderground v.1.12,2013-02-05 00:19:00,
2013-02-04 19:24:00,43.8,32.4,30.05,East,82,0.0,-999.0,64,0.00,,,0.00,Wunderground v.1.12,2013-02-05 00:24:00,
2013-02-04 19:30:00,43.6,32.2,30.05,East,82,0.0,-999.0,64,0.00,,,0.00,Wunderground v.1.12,2013-02-05 00:30:00,
2013-02-04 19:35:00,43.3,32.3,30.05,East,82,0.0,-999.0,65,0.00,,,0.00,Wunderground v.1.12,2013-02-05 00:35:00,
2013-02-04 19:40:00,43.2,32.2,30.05,East,82,0.0,-999.0,65,0.00,,,0.00,Wunderground v.1.12,2013-02-05 00:40:00,
2013-02-04 19:45:00,43.1,32.1,30.05,East,82,0.0,-999.0,65,0.00,,,0.00,Wunderground v.1.12,2013-02-05 00:45:00,
2013-02-04 19:50:00,42.9,32.3,30.05,East,82,0.0,-999.0,66,0.00,,,0.00,Wunderground v.1.12,2013-02-05 00:50:00,
2013-02-04 19:55:00,42.8,32.2,30.05,East,82,0.0,-999.0,66,0.00,,,0.00,Wunderground v.1.12,2013-02-05 00:55:00,
2013-02-04 20:00:00,42.8,32.2,30.05,East,82,0.0,-999.0,66,0.00,,,0.00,Wunderground v.1.12,2013-02-05 01:00:00,
2013-02-04 20:05:00,42.6,32.0,30.05,East,82,0.0,-999.0,66,0.00,,,0.00,Wunderground v.1.12,2013-02-05 01:05:00,
2013-02-04 20:10:00,42.5,32.3,30.05,East,82,0.0,-999.0,67,0.00,,,0.00,Wunderground v.1.12,2013-02-05 01:10:00,
2013-02-04 20:15:00,42.5,32.3,30.05,East,82,0.0,-999.0,67,0.00,,,0.00,Wunderground v.1.12,2013-02-05 01:15:00,
2013-02-04 20:20:00,42.3,32.1,30.05,East,82,0.0,-999.0,67,0.00,,,0.00,Wunderground v.1.12,2013-02-05 01:20:00,
2013-02-04 20:25:00,42.3,32.5,30.05,East,82,0.0,-999.0,68,0.00,,,0.00,Wunderground v.1.12,2013-02-05 01:25:00,
2013-02-04 20:30:00,42.2,32.0,30.05,East,82,0.0,-999.0,67,0.00,,,0.00,Wunderground v.1.12,2013-02-05 01:30:00,
2013-02-04 20:35:00,42.2,32.4,30.05,East,82,0.0,-999.0,68,0.00,,,0.00,Wunderground v.1.12,2013-02-05 01:35:00,
2013-02-04 20:40:00,42.2,32.4,30.05,East,82,0.0,-999.0,68,0.00,,,0.00,Wunderground v.1.12,2013-02-05 01:40:00,
2013-02-04 20:45:00,42.1,32.7,30.05,East,82,0.0,-999.0,69,0.00,,,0.00,Wunderground v.1.12,2013-02-05 01:45:00,
2013-02-04 20:50:00,42.1,32.3,30.05,East,82,0.0,-999.0,68,0.00,,,0.00,Wunderground v.1.12,2013-02-05 01:50:00,
2013-02-04 20:55:00,41.9,32.5,30.05,East,82,0.0,-999.0,69,0.00,,,0.00,Wunderground v.1.12,2013-02-05 01:55:00,
2013-02-04 21:00:00,41.9,32.5,30.05,East,82,0.0,-999.0,69,0.00,,,0.00,Wunderground v.1.12,2013-02-05 02:00:00,
2013-02-04 21:05:00,41.9,32.5,30.05,East,82,0.0,-999.0,69,0.00,,,0.00,Wunderground v.1.12,2013-02-05 02:05:00,
2013-02-04 21:10:00,41.9,32.5,30.05,East,82,0.0,-999.0,69,0.00,,,0.00,Wunderground v.1.12,2013-02-05 02:10:00,
2013-02-04 21:15:00,41.8,32.4,30.05,East,82,0.0,-999.0,69,0.00,,,0.00,Wunderground v.1.12,2013-02-05 02:15:00,
2013-02-04 21:20:00,41.8,32.7,30.05,East,82,0.0,-999.0,70,0.00,,,0.00,Wunderground v.1.12,2013-02-05 02:20:00,
2013-02-04 21:25:00,41.8,32.7,30.05,East,82,0.0,-999.0,70,0.00,,,0.00,Wunderground v.1.12,2013-02-05 02:25:00,
2013-02-04 21:30:00,41.6,32.5,30.05,East,82,0.0,-999.0,70,0.00,,,0.00,Wunderground v.1.12,2013-02-05 02:30:00,
2013-02-04 21:35:00,41.6,32.5,30.05,East,82,0.0,-999.0,70,0.00,,,0.00,Wunderground v.1.12,2013-02-05 02:35:00,
2013-02-04 21:41:00,41.5,32.8,30.05,East,82,0.0,-999.0,71,0.00,,,0.00,Wunderground v.1.12,2013-02-05 02:41:00,
2013-02-04 21:46:00,41.3,32.6,30.05,East,82,0.0,-999.0,71,0.00,,,0.00,Wunderground v.1.12,2013-02-05 02:46:00,
2013-02-04 21:51:00,41.2,32.5,30.05,East,82,0.0,-999.0,71,0.00,,,0.00,Wunderground v.1.12,2013-02-05 02:51:00,
2013-02-04 21:56:00,40.9,32.6,30.05,East,82,0.0,-999.0,72,0.00,,,0.00,Wunderground v.1.12,2013-02-05 02:56:00,
2013-02-04 22:01:00,40.8,32.5,30.05,East,82,0.0,-999.0,72,0.00,,,0.00,Wunderground v.1.12,2013-02-05 03:01:00,
2013-02-04 22:06:00,40.6,32.3,30.05,East,82,0.0,-999.0,72,0.00,,,0.00,Wunderground v.1.12,2013-02-05 03:06:00,
2013-02-04 22:11:00,40.5,32.2,30.04,East,82,0.0,-999.0,72,0.00,,,0.00,Wunderground v.1.12,2013-02-05 03:11:00,
2013-02-04 22:16:00,40.3,32.0,30.04,East,82,0.0,-999.0,72,0.00,,,0.00,Wunderground v.1.12,2013-02-05 03:16:00,
2013-02-04 22:21:00,40.2,31.9,30.04,East,82,0.0,-999.0,72,0.00,,,0.00,Wunderground v.1.12,2013-02-05 03:21:00,
2013-02-04 22:26:00,40.1,32.1,30.04,East,82,0.0,-999.0,73,0.00,,,0.00,Wunderground v.1.12,2013-02-05 03:26:00,
2013-02-04 22:31:00,40.1,32.1,30.04,East,82,0.0,-999.0,73,0.00,,,0.00,Wunderground v.1.12,2013-02-05 03:31:00,
2013-02-04 22:36:00,39.9,31.9,30.04,East,82,0.0,-999.0,73,0.00,,,0.00,Wunderground v.1.12,2013-02-05 03:36:00,
2013-02-04 22:41:00,39.8,31.8,30.03,East,82,0.0,-999.0,73,0.00,,,0.00,Wunderground v.1.12,2013-02-05 03:41:00,
2013-02-04 22:46:00,39.6,31.7,30.03,East,82,0.0,-999.0,73,0.00,,,0.00,Wunderground v.1.12,2013-02-05 03:46:00,
2013-02-04 22:51:00,39.5,31.9,30.03,East,82,0.0,-999.0,74,0.00,,,0.00,Wunderground v.1.12,2013-02-05 03:51:00,
2013-02-04 22:56:00,39.5,31.9,30.03,East,82,0.0,-999.0,74,0.00,,,0.00,Wunderground v.1.12,2013-02-05 03:56:00,
2013-02-04 23:01:00,39.3,31.4,30.03,East,82,0.0,-999.0,73,0.00,,,0.00,Wunderground v.1.12,2013-02-05 04:01:00,
2013-02-04 23:06:00,39.2,31.6,30.03,East,82,0.0,-999.0,74,0.00,,,0.00,Wunderground v.1.12,2013-02-05 04:06:00,
2013-02-04 23:11:00,39.1,31.5,30.02,East,82,0.0,-999.0,74,0.00,,,0.00,Wunderground v.1.12,2013-02-05 04:11:00,
2013-02-04 23:16:00,38.9,31.3,30.02,East,82,0.0,-999.0,74,0.00,,,0.00,Wunderground v.1.12,2013-02-05 04:16:00,
2013-02-04 23:21:00,38.8,31.2,30.02,East,82,0.0,-999.0,74,0.00,,,0.00,Wunderground v.1.12,2013-02-05 04:21:00,
2013-02-04 23:26:00,38.6,31.0,30.02,East,82,0.0,-999.0,74,0.00,,,0.00,Wunderground v.1.12,2013-02-05 04:26:00,
2013-02-04 23:31:00,38.5,31.3,30.02,East,82,0.0,-999.0,75,0.00,,,0.00,Wunderground v.1.12,2013-02-05 04:31:00,
2013-02-04 23:36:00,38.3,31.1,30.02,East,82,0.0,-999.0,75,0.00,,,0.00,Wunderground v.1.12,2013-02-05 04:36:00,
2013-02-04 23:41:00,38.2,31.0,30.01,East,82,0.0,-999.0,75,0.00,,,0.00,Wunderground v.1.12,2013-02-05 04:41:00,
2013-02-04 23:46:00,38.2,31.0,30.01,East,82,0.0,-999.0,75,0.00,,,0.00,Wunderground v.1.12,2013-02-05 04:46:00,
2013-02-04 23:51:00,38.0,30.8,30.01,East,82,0.0,-999.0,75,0.00,,,0.00,Wunderground v.1.12,2013-02-05 04:51:00,
2013-02-04 23:57:00,37.9,31.0,30.00,East,82,0.0,-999.0,76,0.00,,,0.00,Wunderground v.1.12,2013-02-05 04:57:00,